Torna al catalogo

STARLINK-3192

AttivoComunicazioniVLEO
NORAD 49767·PAYLOAD·🇺🇸 United States

Lanciato Dec 2, 2021 da Cape Canaveral Space Force Station

Loading…

Prossimi Passaggi (prossime 24 ore)

TLE

AggiornatoSource: CelesTrak SupGP

Epoca: Sep 15, 2026, 02:38 UTC

1 49767C 21115AV  26258.11020833  .00044148  00000+0  13047-2 0  2589
2 49767  53.1607 354.5956 0001195  88.0522 121.7514 15.34359883    16

Traccia STARLINK-3192 in tempo reale con AllMySat

Download on the App Store